• MPC Preparation (Info)

  • MPEC 2020-W09 : 2020 VU5

    The following Minor Planet Electronic Circular may be linked-to from your own Web pages, but must not otherwise be redistributed electronically.

    A form allowing access to any MPEC is at the bottom of this page.


    Read MPEC 2020-W08 Read MPEC 2020-W10


    M.P.E.C. 2020-W09                             Issued 2020 November 16, 13:28 UT
    
         The Minor Planet Electronic Circulars contain information on unusual
             minor planets and routine data on comets.  They are published
        on behalf of Division F of the International Astronomical Union by the
              Minor Planet Center, Smithsonian Astrophysical Observatory,
                              Cambridge, MA 02138, U.S.A.
    
                 Prepared using the Tamkin Foundation Computer Network
    
                                  MPC@CFA.HARVARD.EDU
                URL https://www.minorplanetcenter.net/    ISSN 1523-6714
    
                                    2020 VU5                                 
    
    
    Observations:
         K20V05U  C2020 11 14.41358804 14 08.574+08 04 49.48               VEW009F52
         K20V05U  C2020 11 14.42499104 13 48.171+08 06 04.89         19.45GVEW009F52
         K20V05U  C2020 11 14.43662504 13 27.026+08 07 22.34         19.77GVEW009F52
         K20V05U*HC2020 11 15.31049403 47 58.64 +09 44 57.8          19.21GVEW009G96
         K20V05U HC2020 11 15.31571603 47 48.10 +09 45 33.4          19.38GVEW009G96
         K20V05U HC2020 11 15.32617403 47 26.66 +09 46 46.1                VEW009G96
         K20V05U KC2020 11 15.35089903 46 36.12 +09 49 37.7          18.64GVEW009I52
         K20V05U KC2020 11 15.35130003 46 35.28 +09 49 40.6          19.54GVEW009I52
         K20V05U KC2020 11 15.35169503 46 34.47 +09 49 43.0          18.86GVEW009I52
         K20V05U KC2020 11 15.35208603 46 33.68 +09 49 45.9          19.94GVEW009I52
         K20V05U KC2020 11 15.39632803 45 03.21 +09 54 48.1          18.73GVEW009I52
         K20V05U KC2020 11 15.39672203 45 02.40 +09 54 50.9          18.99GVEW009I52
         K20V05U KC2020 11 15.39711503 45 01.58 +09 54 53.6          18.61GVEW009I52
         K20V05U KC2020 11 15.39750803 45 00.78 +09 54 55.9          19.38GVEW009I52
         K20V05U KC2020 11 15.77751903 33 23.67 +10 38 24.2          18.0 GVEW009L34
         K20V05U KC2020 11 15.79250803 32 52.68 +10 40 17.5          17.4 GVEW009L34
         K20V05U KC2020 11 15.81119803 32 13.64 +10 42 37.0          18.8 GVEW009L34
         K20V05U KC2020 11 15.82223703 31 50.32 +10 43 59.3          18.8 GVEW009L34
         K20V05U KC2020 11 15.95662503 27 04.69 +10 58 31.7          19.6 GVEW009Z80
         K20V05U KC2020 11 15.96686803 26 42.51 +10 59 45.3                VEW009Z80
         K20V05U KC2020 11 15.97065903 26 34.67 +11 00 13.3          19.4 GVEW009J95
         K20V05U KC2020 11 15.97393503 26 27.55 +11 00 36.1          19.3 GVEW009J95
         K20V05U KC2020 11 15.97713003 26 20.29 +11 00 58.1          19.5 GVEW009Z80
         K20V05U KC2020 11 15.97924103 26 16.06 +11 01 13.3          19.1 GVEW009J95
         K20V05U KC2020 11 16.06647 03 23 38.33 +11 13 00.0          19.4 GVEW009W34
         K20V05U KC2020 11 16.07326 03 23 23.56 +11 13 50.3          19.1 GVEW009W34
         K20V05U KC2020 11 16.08028 03 23 08.31 +11 14 43.5          18.9 GVEW009W34
         K20V05U mC2020 11 16.14642203 20 53.73 +11 22 46.3          18.94GVEW009I52
         K20V05U mC2020 11 16.14661403 20 53.31 +11 22 47.7          19.69GVEW009I52
         K20V05U mC2020 11 16.14680203 20 52.90 +11 22 49.4          18.84GVEW009I52
         K20V05U mC2020 11 16.14698903 20 52.46 +11 22 50.4          18.71GVEW009I52
         K20V05U KC2020 11 16.19375403 18 57.73 +11 27 55.2          18.3 VuEW009H21
         K20V05U KC2020 11 16.19544503 18 53.91 +11 28 07.4          18.3 VuEW009H21
         K20V05U KC2020 11 16.19713803 18 50.09 +11 28 19.4          18.3 VuEW009H21
         K20V05U KC2020 11 16.19854503 18 46.92 +11 28 29.6          18.3 VuEW009H21
         K20V05U KC2020 11 16.20963603 18 30.70 +11 30 16.8          19.7 VqEW009858
         K20V05U KC2020 11 16.21576803 18 16.85 +11 31 01.2          19.7 VqEW009858
         K20V05U KC2020 11 16.22190903 18 02.95 +11 31 45.9          19.6 VqEW009858
         K20V05U KC2020 11 16.23092 03 17 37.32 +11 32 23.3          19.0 RqEW009734
         K20V05U KC2020 11 16.23672 03 17 24.09 +11 33 04.8          19.3 RqEW009734
         K20V05U KC2020 11 16.23865 03 17 19.71 +11 33 18.0          19.2 RqEW009734
         K20V05U KC2020 11 16.25873 03 16 34.01 +11 35 40.3          18.9 RqEW009H36
         K20V05U KC2020 11 16.26363 03 16 22.81 +11 36 14.6          18.8 RqEW009H36
         K20V05U KC2020 11 16.27466 03 15 57.72 +11 37 31.4          19.1 RqEW009H36
         K20V05U KC2020 11 16.28017 03 15 45.11 +11 38 09.2          19.2 RqEW009H36
    
    Observer details:
    734 Farpoint Observatory, Eskridge.  Observers G. Hug, D. Cromer, D. Goodin,
        R. Valentine.  Measurer D. Cromer.  0.7-m reflector + CCD.
    858 Tebbutt Observatory, Edgewood.  Observer F. B. Zoltowski.  0.51-m Schmidt-
        Cassegrain + CCD.
    F52 Pan-STARRS 2, Haleakala.  Observers J. Bulger, K. Chambers, T. Dukes, T.
        Lowe, A. Schultz, M. Willman.  Measurers S. Chastel, M. Huber, Y.
        Ramanjooloo, R. Wainscoat, R. Weryk.  1.8-m Ritchey-Chretien + CCD.
    G96 Mt. Lemmon Survey.  Observer D. Rankin.  Measurers E. J. Christensen, G.
        A. Farneth, D. C. Fuls, A. R. Gibbs, A. D. Grauer, H. Groeller, R. A.
        Kowalski, S. M. Larson, G. J. Leonard, T. A. Pruyne, D. Rankin, R. L.
        Seaman, F. C. Shelly, K. W. Wierzchos.  1.5-m reflector + 10K CCD.
    H21 Astronomical Research Observatory, Westfield.  Observer R. Holmes.
        Measurers S. Foglia, L. Buzzi, T. Linder, R. Holmes.  0.76-m f/3.0
        astrograph + CCD.
    H36 Sandlot Observatory, Scranton.  Observer G. Hug.  0.56-m reflector + CCD.
    I52 Steward Observatory, Mt. Lemmon Station.  Observer T. A. Pruyne.
        Measurers E. J. Christensen, G. A. Farneth, D. C. Fuls, A. R. Gibbs, A. D.
        Grauer, H. Groeller, R. A. Kowalski, S. M. Larson, G. J. Leonard, T. A.
        Pruyne, D. Rankin, R. L. Seaman, F. C. Shelly, K. W. Wierzchos.  1.0-m
        reflector + CCD.
    J95 Great Shefford.  Observer P. Birtwhistle.  0.41-m f/6.3 Schmidt-Cassegrain
        + CCD.
    L34 Galhassin Robotic Telescope, Isnello.  Observer A. Nastasi.  0.40-m
        reflector + CCD.
    W34 Squirrel Valley Observatory, Columbus.  Observer R. L. Flynn.  0.36-m
        Schmidt-Cassegrain + CCD.
    Z80 Northolt Branch Observatory.  Observer G. Wells.  Measurers G. Wells, D.
        Bamberger.  0.25-m f/8.0 Ritchey-Chretien + CCD.
    
    Orbital elements:
    2020 VU5                                                 Earth MOID = 0.0115 AU
    Epoch 2020 Dec. 17.0 TT = JDT 2459200.5                 Veres
    M 242.86769              (2000.0)            P               Q
    n   1.30023060     Peri.  163.74595     -0.77709062     +0.62538490
    a   0.8313600      Node    55.18092     -0.58663957     -0.67890562
    e   0.2219189      Incl.    4.95293     -0.22800038     -0.38468284
    P   0.76           H   27.5           G   0.15           U   7
    Residuals in seconds of arc
    201114 F52  0.4-  0.0     201115 L34  0.4+  1.6+    201116 I52  0.3-  0.5-
    201114 F52  1.4+  0.4-    201115 L34  0.1+  1.7+    201116 H21  0.5+  0.3-
    201114 F52  0.5-  0.2-    201115 L34  1.2-  1.9+    201116 H21  0.4+  0.2-
    201115 G96  1.8-  0.7+    201115 Z80  0.4+  0.7-    201116 H21  0.4+  0.3-
    201115 G96  0.0   0.2-    201115 Z80  0.5+  0.2-    201116 H21  0.5+  0.2-
    201115 G96  1.0-  0.4-    201115 J95  0.2+  0.4+    201116 858  0.0   0.0
    201115 I52  0.0   0.1-    201115 J95  0.1+  0.2-    201116 858  0.0   0.2-
    201115 I52  0.3-  0.1+    201115 Z80  1.3+  0.5-    201116 858  0.0   0.1+
    201115 I52  0.3-  0.2-    201115 J95  0.6+  0.7-    201116 734  0.8-  0.1-
    201115 I52  0.2-  0.0     201116 W34  0.1+  0.6+    201116 734  1.7-  0.3+
    201115 I52  0.4+  0.2-    201116 W34  0.8-  0.1+    201116 734  1.6-  0.2-
    201115 I52  0.3+  0.0     201116 W34  0.5-  0.9+    201116 H36  0.2+  0.1+
    201115 I52  0.0   0.0     201116 I52  0.1+  0.4-    201116 H36  0.4-  0.2+
    201115 I52  0.1+  0.4-    201116 I52  0.1+  0.4-    201116 H36  0.2+  0.2+
    201115 L34  0.6+  0.5+    201116 I52  0.2+  0.1-    201116 H36  0.5-  0.2-
    
    Ephemeris:
    2020 VU5                 a,e,i = 0.83, 0.22, 5                   q = 0.6469
    Date    TT    R. A. (2000) Decl.     Delta      r    Elong.  Phase     V
    2020 10 17    07 01 35.9 -04 19 09   0.08817 1.0094    95.8    79.2    25.0
    ...
    2020 11 01    06 37 24.2 -02 31 06   0.05025 1.0150   115.4    62.1    23.2
    ...
    2020 11 09    05 48 35.5 +01 11 59   0.03023 1.0121   135.0    43.8    21.6
    ...
    2020 11 15    03 57 24.8 +09 12 04   0.01854 1.0073   167.3    12.5    19.6
    2020 11 16    03 25 33.4 +11 09 00   0.01742 1.0062   172.4     7.4    19.3
    2020 11 17    02 49 41.3 +13 04 21   0.01670 1.0051   168.7    11.1    19.3
    ...
    2020 11 23    23 24 16.1 +17 12 06   0.02126 0.9971   116.3    62.6    21.4
    ...
    2020 12 01    21 39 00.5 +14 29 37   0.03857 0.9829    84.2    93.6    23.7
    ...
    2020 12 16    20 42 19.5 +11 20 12   0.07505 0.9460    57.5   118.7    26.5
    
    M. P. C. Staff               (C) Copyright 2020 MPC           M.P.E.C. 2020-W09
    


    Read MPEC 2020-W08 Read MPEC 2020-W10


    MPEC number:

    Enter an MPEC number in one of the following forms:

    • 1997-B01 (the full form)
    • J97B01 (the packed version of the full form)
    • B01 (the abbreviated form)